Home   Weather   Liberec   Past weeks

Flag for Czech Republic Past Weather in Liberec, Czech Republic — Yesterday and Last 2 Weeks

Now
26 °F

Fog.


Feels Like: 26 °F
Forecast: 18 / 28 °F
Wind: 1 mph from South

Location: Liberec

Current Time: Jan 21, 2017 at 7:42:41 am

Latest Report: Jan 21, 2017 at 7:00 am


Visibility: 5 mi

Pressure: 30.55 "Hg

Humidity: 71%

Dew Point: 18 °F

Location of LiberecLocation

Past Weather in Liberec — Graph

°F

Liberec Temperature Yesterday

Maximum temperature yesterday: 31 °F (at 2:00 pm)
Minimum temperature yesterday: 20 °F (at 12:00 am)
Average temperature yesterday: 26 °F

High & Low Weather Summary for the Past Weeks

 TemperatureHumidityPressure
High37 °F (Jan 13, 8:00 am)99% (Jan 13, 7:00 pm)30.78 "Hg (Jan 13, 7:00 pm)
Low0 °F (Jan 19, 7:00 am)46% (Jan 19, 3:00 pm)29.23 "Hg (Jan 13, 8:00 am)
Average23 °F84%30.25 "Hg
* Reported Jan 6 6:00 am — Jan 21 6:00 am, Liberec, Weather by CustomWeather, © 2017

Note: Actual official high and low records may vary slightly from our data, if they occured in-between our weather recording intervals... More about our weather records

Advertising

Liberec Weather History for the Previous 24 Hours

Scroll right to see more
 ConditionsComfort  
Time TempWeatherWind HumidityBarometerVisibility
6:00 am
Sat, Jan 21
26 °FFog.2 mph74%30.54 "Hg3 mi
5:00 am26 °FFog.2 mph76%30.55 "Hg4 mi
4:00 am26 °FFog.1 mph85%30.55 "Hg3 mi
3:00 am26 °FFog.1 mph73%30.56 "Hg4 mi
2:00 am26 °FFog.2 mph73%30.55 "Hg5 mi
1:00 am28 °FFog.1 mph67%30.56 "Hg6 mi
12:00 am28 °FFog.1 mph68%30.57 "Hg4 mi
11:00 pm
Fri, Jan 20
28 °FFog.2 mph64%30.58 "Hg5 mi
10:00 pm29 °FFog.1 mph68%30.58 "Hg4 mi
9:00 pm28 °FFog.1 mph71%30.58 "Hg4 mi
8:00 pm28 °FFog.1 mph72%30.58 "Hg4 mi
7:00 pm28 °FFog.1 mph75%30.58 "Hg4 mi
6:00 pm28 °FFog.1 mph75%30.59 "Hg2 mi
5:00 pm28 °FFog.1 mph73%30.60 "Hg2 mi
4:00 pm29 °FFog.1 mph64%30.59 "Hg5 mi
3:00 pm30 °FFog.1 mph60%30.59 "Hg4 mi
2:00 pm31 °FOvercast.1 mph53%30.59 "Hg6 mi
1:00 pm30 °FOvercast.1 mph48%30.61 "Hg6 mi
12:00 pm29 °FPartly sunny.2 mph52%30.63 "Hg5 mi
11:00 am25 °FFog.2 mph66%30.65 "Hg5 mi
10:00 am23 °FFog.2 mph70%30.67 "Hg5 mi
9:00 am22 °FFog.3 mph73%30.66 "Hg5 mi
8:00 am22 °FFog.2 mph82%30.65 "Hg4 mi
7:00 am23 °FFog.1 mph84%30.65 "Hg4 mi
Weather by CustomWeather, © 2017

See weather overviewHow to use our weather pages